Location: Boiro
(42.6475°N, 8.8834°W)
Time: 03:26:12
(UTC+01:00)

S-56A Canister/Altair - Pass Details

Date: 07 December 2021
Orbit: 633 x 2499 km, 38.9° (Epoch: 18 January)

Event Time Altitude Azimuth Distance (km) Brightness Sun altitude
Exits shadow 06:53:00 12° 212° (SSW) 2,062 9.5 -21.2°
Drops below altitude 10° 06:54:07 10° 198° (SSW) 2,132 9.7 -21.0°
Sets 06:57:43 0° 166° (SSE) 2,927 10.9 -20.3°
